Flight Track Log - Related Links

Times and Time Zones

All times are in EDT time to prevent confusion due to time zone crossing. See the NKS212 flight status page for this flight to view local times or setup timezone preferences in your user account.

Time Position Orientation Groundspeed Altitude Reporting Facility
EDT Latitude Longitude Course Direction KTS MPH feet Rate Location/Type
Fri 04:31:54 PM 18.2517 -65.0509 279° West 7,200  Level FlightAware ADS-B (TNCM / SXM)
Fri 04:32:04 PM 18.2536 -65.0634 284° West 295 339 7,700 3,517 Climbing FlightAware ADS-B (TNCM / SXM)
Fri 04:32:23 PM 18.2608 -65.0915 285° West 300 345 8,900 3,257 Climbing FlightAware ADS-B (TNCM / SXM)
Fri 04:32:39 PM 18.2645 -65.1084 282° West 301 346 9,600 2,609 Climbing FlightAware ADS-B (TNCM / SXM)
Fri 04:33:09 PM 18.2744 -65.1581 283° West 321 369 10,900 2,400 Climbing FlightAware ADS-B (TNCM / SXM)
Fri 04:33:39 PM 18.2869 -65.2015 299° West 339 390 12,000 2,215 Climbing FlightAware ADS-B (TNCM / SXM)
Fri 04:34:14 PM 18.3218 -65.2525 308° West 356 410 13,300 2,625 Climbing FlightAware ADS-B (TNCM / SXM)
Fri 04:34:43 PM 18.3492 -65.2944 305° West 360 414 14,800 2,522 Climbing FlightAware ADS-B (TNCM / SXM)
Fri 04:35:23 PM 18.3870 -65.3517 305° West 363 418 16,200 2,087 Climbing FlightAware ADS-B (TNCM / SXM)
Fri 04:35:52 PM 18.4171 -65.3961 306° West 389 448 17,200 2,426 Climbing FlightAware ADS-B (TNCM / SXM)
Fri 04:36:57 PM 18.4870 -65.4979 306° West 388 447 20,000 2,388 Climbing FlightAware ADS-B (TNCM / SXM)
Fri 04:37:30 PM 18.5214 -65.5481 306° West 395 455 21,100 1,900 Climbing FlightAware ADS-B (TNCM / SXM)
Fri 04:37:57 PM 18.5513 -65.5917 306° West 399 459 21,900 1,932 Climbing FlightAware ADS-B (TNCM / SXM)
Fri 04:38:29 PM 18.5853 -65.6412 306° West 401 461 23,000 1,855 Climbing FlightAware ADS-B (TNCM / SXM)
Fri 04:38:52 PM 18.6088 -65.6754 306° West 405 466 23,600 1,700 Climbing FlightAware ADS-B (TNCM / SXM)
Fri 04:39:29 PM 18.6512 -65.7372 306° West 409 471 24,700 1,662 Climbing FlightAware ADS-B (TNCM / SXM)
Fri 04:39:57 PM 18.6804 -65.7800 306° West 414 476 25,400 1,684 Climbing FlightAware ADS-B (TNCM / SXM)
Fri 04:40:26 PM 18.7154 -65.8310 306° West 416 479 26,300 1,967 Climbing FlightAware ADS-B (TNCM / SXM)
Fri 04:40:58 PM 18.7497 -65.8812 306° West 411 473 27,400 1,619 Climbing FlightAware ADS-B (TNCM / SXM)
Fri 04:41:29 PM 18.7857 -65.9339 306° West 417 480 28,000 1,279 Climbing FlightAware ADS-B (TNCM / SXM)
Fri 04:41:59 PM 18.8192 -65.9829 306° West 422 486 28,700 1,400 Climbing FlightAware ADS-B (TNCM / SXM)
Fri 04:42:29 PM 18.8526 -66.0317 306° West 421 484 29,400 1,552 Climbing FlightAware ADS-B (TNCM / SXM)
Fri 04:42:57 PM 18.8851 -66.0794 306° West 417 480 30,200 1,500 Climbing FlightAware ADS-B (TNCM / SXM)
Fri 04:43:29 PM 18.9168 -66.1259 306° West 418 481 30,900 1,219 Climbing FlightAware ADS-B (TNCM / SXM)
Fri 04:44:01 PM 18.9569 -66.1850 306° West 420 483 31,500 1,418 Climbing FlightAware ADS-B (TNCM / SXM)
Fri 04:45:19 PM 19.0447 -66.3141 306° West 417 480 33,500 1,540 Climbing FlightAware ADS-B (TNCM / SXM)
Fri 04:45:54 PM 19.0855 -66.3741 306° West 409 471 34,400 1,406 Climbing FlightAware ADS-B (TNCM / SXM)
Fri 04:46:23 PM 19.1171 -66.4206 306° West 407 468 35,000 1,220 Climbing FlightAware ADS-B (TNCM / SXM)
Fri 04:46:53 PM 19.1498 -66.4688 306° West 405 466 35,600 984 Climbing FlightAware ADS-B (TNCM / SXM)
Fri 04:47:24 PM 19.1821 -66.5166 306° West 405 466 36,000 369 Climbing FlightAware ADS-B (TNCM / SXM)
Fri 04:47:58 PM 19.2000 -66.5500 306° West 400 460 36,000  Level San Juan Center
Fri 04:48:59 PM 19.2667 -66.6500 305° West 400 460 36,000  Level San Juan Center
Fri 04:49:59 PM 19.3333 -66.7500 305° West 400 460 36,000  Level San Juan Center
Fri 04:50:59 PM 19.4000 -66.8500 305° West 410 472 36,000  Level San Juan Center
Fri 04:52:00 PM 19.4667 -66.9500 305° West 410 472 36,000  Level San Juan Center
Fri 04:53:00 PM 19.5333 -67.0333 310° West 410 472 36,000  Level San Juan Center
Fri 04:54:00 PM 19.6000 -67.1333 305° West 410 472 36,000  Level San Juan Center
Fri 04:55:01 PM 19.6667 -67.2333 305° West 420 483 36,000  Level San Juan Center
Fri 04:56:01 PM 19.7333 -67.3333 305° West 400 460 36,000  Level San Juan Center
Fri 04:57:01 PM 19.8000 -67.4333 305° West 400 460 36,000  Level San Juan Center
Fri 04:58:02 PM 19.8667 -67.5333 305° West 410 472 36,000  Level San Juan Center
Fri 04:59:02 PM 19.9333 -67.6333 305° West 410 472 36,000  Level San Juan Center
Fri 05:00:02 PM 20.0000 -67.7333 305° West 410 472 36,000  Level San Juan Center
Fri 05:01:03 PM 20.0500 -67.8333 298° West 410 472 36,000  Level San Juan Center
Fri 05:02:36 PM 20.1764 -67.9981 309° West 416 479 36,000  Level Miami Center
Fri 05:03:36 PM 20.2406 -68.0997 304° West 416 479 36,000  Level Miami Center
Fri 05:04:36 PM 20.2961 -68.1997 301° West 405 466 36,000  Level Miami Center
Fri 05:05:36 PM 20.3558 -68.3042 301° West 405 466 36,000  Level Miami Center
Fri 05:06:36 PM 20.4133 -68.4064 301° West 405 466 36,000  Level Miami Center
Fri 05:07:36 PM 20.4711 -68.5111 301° West 410 472 36,000  Level Miami Center
Fri 05:08:36 PM 20.5286 -68.6117 301° West 410 472 36,000  Level Miami Center
Fri 05:09:36 PM 20.5900 -68.7117 303° West 410 472 36,000  Level Miami Center
Fri 05:10:36 PM 20.6494 -68.8144 302° West 410 472 36,000  Level Miami Center
Fri 05:11:36 PM 20.7069 -68.9172 301° West 410 472 36,000  Level Miami Center
Fri 05:12:36 PM 20.7664 -69.0244 301° West 410 472 36,000  Level Miami Center
Fri 05:13:36 PM 20.8239 -69.1275 301° West 410 472 36,000  Level Miami Center
Fri 05:14:36 PM 20.8872 -69.2303 303° West 410 472 36,000  Level Miami Center
Fri 05:15:36 PM 20.9422 -69.3336 300° West 410 472 36,000  Level Miami Center
Fri 05:16:36 PM 21.0014 -69.4367 302° West 410 472 36,000  Level Miami Center
Fri 05:17:36 PM 21.0606 -69.5378 302° West 410 472 36,000  Level Miami Center
Fri 05:18:36 PM 21.1172 -69.6392 301° West 410 472 36,000  Level Miami Center
Fri 05:19:36 PM 21.1742 -69.7428 301° West 410 472 36,000  Level Miami Center
Fri 05:20:36 PM 21.2311 -69.8464 301° West 410 472 36,000  Level Miami Center
Fri 05:21:36 PM 21.2919 -69.9500 302° West 410 472 36,000  Level Miami Center
Fri 05:22:36 PM 21.3489 -70.0539 300° West 410 472 36,000  Level Miami Center
Fri 05:23:36 PM 21.4056 -70.1578 300° West 410 472 36,000  Level Miami Center
Fri 05:24:36 PM 21.4642 -70.2597 302° West 410 472 36,000  Level Miami Center
Fri 05:25:36 PM 21.5228 -70.3636 301° West 410 472 36,000  Level Miami Center
Fri 05:26:36 PM 21.5814 -70.4678 301° West 410 472 36,000  Level Miami Center
Fri 05:27:36 PM 21.6378 -70.5700 301° West 410 472 36,000  Level Miami Center
Fri 05:28:36 PM 21.6939 -70.6722 301° West 410 472 36,000  Level Miami Center
Fri 05:29:36 PM 21.7481 -70.7722 300° West 405 466 36,000  Level Miami Center
Fri 05:30:36 PM 21.8064 -70.8747 302° West 405 466 36,000  Level Miami Center
Fri 05:31:36 PM 21.8625 -70.9747 301° West 400 460 36,000  Level Miami Center
Fri 05:32:36 PM 21.9164 -71.0753 300° West 395 455 36,000  Level Miami Center
Fri 05:33:36 PM 21.9722 -71.1781 300° West 390 449 36,000  Level Miami Center
Fri 05:34:36 PM 22.0281 -71.2786 301° West 390 449 36,000  Level Miami Center
Fri 05:35:36 PM 22.0839 -71.3769 302° West 390 449 36,000  Level Miami Center
Fri 05:36:36 PM 22.1397 -71.4797 300° West 390 449 36,000  Level Miami Center
Fri 05:37:36 PM 22.1956 -71.5806 301° West 390 449 36,000  Level Miami Center
Fri 05:38:36 PM 22.2492 -71.6839 299° West 390 449 36,000  Level Miami Center
Fri 05:39:36 PM 22.3047 -71.7847 301° West 390 449 36,000  Level Miami Center
Fri 05:40:36 PM 22.3603 -71.8858 301° West 390 449 36,000  Level Miami Center
Fri 05:41:36 PM 22.4136 -71.9869 300° West 390 449 36,000  Level Miami Center
Fri 05:42:36 PM 22.4711 -72.0883 302° West 390 449 36,000  Level Miami Center
Fri 05:43:36 PM 22.5244 -72.1897 300° West 390 449 36,000  Level Miami Center
Fri 05:44:36 PM 22.5797 -72.2911 301° West 390 449 36,000  Level Miami Center
Fri 05:45:36 PM 22.6369 -72.3925 301° West 390 449 36,000  Level Miami Center
Fri 05:46:36 PM 22.6922 -72.4942 301° West 390 449 36,000  Level Miami Center
Fri 05:47:36 PM 22.7431 -72.5983 298° West 390 449 36,000  Level Miami Center
Fri 05:48:36 PM 22.8003 -72.7022 301° West 390 449 36,000  Level Miami Center
Fri 05:49:36 PM 22.8553 -72.8042 300° West 390 449 36,000  Level Miami Center
Fri 05:50:36 PM 22.9081 -72.9061 299° West 390 449 36,000  Level Miami Center
Fri 05:51:36 PM 22.9628 -73.0058 301° West 390 449 36,000  Level Miami Center
Fri 05:52:36 PM 23.0178 -73.1081 300° West 390 449 36,000  Level Miami Center
Fri 05:53:36 PM 23.0786 -73.2122 302° West 385 443 36,000  Level Miami Center
Fri 05:54:36 PM 23.1231 -73.3150 295° West 385 443 36,000  Level Miami Center
Fri 05:55:36 PM 23.1797 -73.4172 301° West 390 449 36,000  Level Miami Center
Fri 05:56:36 PM 23.2322 -73.5222 299° West 390 449 36,000  Level Miami Center
Fri 05:57:36 PM 23.2844 -73.6247 299° West 385 443 36,000  Level Miami Center
Fri 05:58:36 PM 23.3389 -73.7253 301° West 385 443 36,000  Level Miami Center
Fri 05:59:36 PM 23.3975 -73.8300 301° West 390 449 36,000  Level Miami Center
Fri 06:00:36 PM 23.4494 -73.9308 299° West 390 449 36,000  Level Miami Center
Fri 06:01:36 PM 23.5039 -74.0361 299° West 390 449 36,000  Level Miami Center
Fri 06:02:36 PM 23.5581 -74.1389 300° West 390 449 36,000  Level Miami Center
Fri 06:03:36 PM 23.6142 -74.2444 300° West 390 449 36,000  Level Miami Center
Fri 06:04:36 PM 23.6681 -74.3475 300° West 390 449 36,000  Level Miami Center
Fri 06:05:36 PM 23.7222 -74.4531 299° West 390 449 36,000  Level Miami Center
Fri 06:06:36 PM 23.7761 -74.5567 300° West 390 449 36,000  Level Miami Center
Fri 06:07:36 PM 23.8297 -74.6600 300° West 390 449 36,000  Level Miami Center
Fri 06:08:36 PM 23.8814 -74.7658 298° West 390 449 36,000  Level Miami Center
Fri 06:09:36 PM 23.9372 -74.8697 300° West 390 449 36,000  Level Miami Center
Fri 06:10:36 PM 23.9908 -74.9733 300° West 390 449 36,000  Level Miami Center
Fri 06:11:36 PM 24.0444 -75.0794 299° West 390 449 36,000  Level Miami Center
Fri 06:12:36 PM 24.0978 -75.1856 299° West 390 449 36,000  Level Miami Center
Fri 06:13:36 PM 24.1514 -75.2897 299° West 390 449 36,000  Level Miami Center
Fri 06:14:36 PM 24.2047 -75.3961 299° West 390 449 36,000  Level Miami Center
Fri 06:15:36 PM 24.2578 -75.5003 299° West 390 449 36,000  Level Miami Center
Fri 06:16:36 PM 24.3111 -75.6069 299° West 390 449 36,000  Level Miami Center
Fri 06:17:36 PM 24.3661 -75.7114 300° West 390 449 36,000  Level Miami Center
Fri 06:18:36 PM 24.4192 -75.8181 299° West 390 449 36,000  Level Miami Center
Fri 06:19:36 PM 24.4700 -75.9228 298° West 390 449 36,000  Level Miami Center
Fri 06:20:36 PM 24.5231 -76.0297 299° West 390 449 36,000  Level Miami Center
Fri 06:21:36 PM 24.5758 -76.1367 299° West 390 449 36,000  Level Miami Center
Fri 06:22:36 PM 24.6306 -76.2392 300° West 390 449 36,000  Level Miami Center
Fri 06:27:36 PM 24.9302 -76.8475 298° West 403 464 36,000  Level FlightAware ADS-B
Fri 06:28:07 PM 24.9581 -76.9041 298° West 403 464 36,000  Level FlightAware ADS-B
Fri 06:28:37 PM 24.9852 -76.9595 298° West 403 464 36,000  Level FlightAware ADS-B
Fri 06:29:09 PM 25.0134 -77.0172 298° West 403 464 36,000  Level FlightAware ADS-B
Fri 06:29:39 PM 25.0380 -77.0676 298° West 403 464 36,000  Level FlightAware ADS-B
Fri 06:30:09 PM 25.0666 -77.1261 298° West 403 464 36,000  Level FlightAware ADS-B
Fri 06:30:49 PM 25.1018 -77.1983 298° West 403 464 36,000  Level FlightAware ADS-B
Fri 06:31:20 PM 25.1301 -77.2564 298° West 404 465 36,000  Level FlightAware ADS-B
Fri 06:31:50 PM 25.1559 -77.3096 298° West 404 465 36,000  Level FlightAware ADS-B
Fri 06:32:20 PM 25.1826 -77.3644 298° West 405 466 36,000  Level FlightAware ADS-B
Fri 06:33:00 PM 25.2185 -77.4385 298° West 404 465 36,000  Level FlightAware ADS-B
Fri 06:33:30 PM 25.2437 -77.4903 298° West 404 465 36,000  Level FlightAware ADS-B
Fri 06:34:07 PM 25.2774 -77.5599 298° West 403 464 36,000  Level FlightAware ADS-B
Fri 06:34:41 PM 25.3071 -77.6212 298° West 404 465 36,000  Level FlightAware ADS-B
Fri 06:35:18 PM 25.3397 -77.6889 297° West 407 468 36,000  Level FlightAware ADS-B
Fri 06:35:58 PM 25.3752 -77.7627 297° West 407 468 36,000  Level FlightAware ADS-B
Fri 06:36:37 PM 25.4086 -77.8321 297° West 408 470 36,000  Level FlightAware ADS-B
Fri 06:37:07 PM 25.4350 -77.8870 298° West 408 470 36,000 -400 Level FlightAware ADS-B
Fri 06:37:37 PM 25.4616 -77.9423 298° West 411 473 35,600 -938 Descending FlightAware ADS-B
Fri 06:38:11 PM 25.4908 -78.0032 297° West 415 478 35,000 -1,014 Descending FlightAware ADS-B
Fri 06:38:48 PM 25.5219 -78.0760 287° West 416 479 34,400 -985 Descending FlightAware ADS-B
Fri 06:39:18 PM 25.5341 -78.1351 282° West 417 480 33,900 -1,000 Descending FlightAware ADS-B
Fri 06:39:48 PM 25.5481 -78.1989 283° West 423 487 33,400 -1,029 Descending FlightAware ADS-B
Fri 06:40:28 PM 25.5662 -78.2815 283° West 430 495 32,700 -963 Descending FlightAware ADS-B
Fri 06:41:09 PM 25.5855 -78.3708 283° West 434 499 32,100 -917 Descending FlightAware ADS-B
Fri 06:41:40 PM 25.5997 -78.4374 283° West 430 495 31,600 -1,082 Descending FlightAware ADS-B
Fri 06:42:10 PM 25.6139 -78.5036 283° West 432 497 31,000 -2,118 Descending FlightAware ADS-B
Fri 06:42:48 PM 25.6312 -78.5847 283° West 434 499 29,200 -3,043 Descending FlightAware ADS-B
Fri 06:43:19 PM 25.6454 -78.6504 283° West 435 501 27,500 -3,246 Descending FlightAware ADS-B
Fri 06:43:49 PM 25.6595 -78.7167 282° West 430 495 25,900 -3,127 Descending FlightAware ADS-B
Fri 06:44:30 PM 25.6776 -78.8038 283° West 425 489 23,800 -3,127 Descending FlightAware ADS-B
Fri 06:45:00 PM 25.6906 -78.8656 283° West 418 481 22,200 -2,912 Descending FlightAware ADS-B
Fri 06:45:38 PM 25.7077 -78.9461 283° West 427 491 20,500 -2,704 Descending FlightAware ADS-B
Fri 06:46:11 PM 25.7226 -79.0176 283° West 427 491 19,000 -2,719 Descending FlightAware ADS-B
Fri 06:46:42 PM 25.7363 -79.0820 283° West 419 482 17,600 -2,763 Descending FlightAware ADS-B
Fri 06:47:27 PM 25.7562 -79.1763 283° West 409 471 15,500 -1,947 Descending FlightAware ADS-B
Fri 06:48:36 PM 25.7703 -79.2517 283° West 423 487 13,900 -2,085 Descending Miami Center
Fri 06:49:25 PM 25.7894 -79.3514 282° West 385 443 11,400 -2,700 Descending Miami Center
Fri 06:49:36 PM 25.7936 -79.3561 314° West 397 457 11,200 -4,209 Descending Miami Center
Fri 06:50:32 PM 25.8147 -79.4742 281° West 359 413 6,700 -2,644 Descending Miami Center
Fri 06:51:34 PM 25.8317 -79.5692 281° West 286 329 6,000 -341 Descending Miami Center
Fri 06:52:35 PM 25.8572 -79.6553 288° West 280 322 6,000  Level Miami Center
Fri 06:53:35 PM 25.8892 -79.7297 296° West 272 313 6,000  Level Miami Center
Fri 06:54:36 PM 25.9231 -79.8092 295° West 273 314 6,000 -50 Level Miami Center
Fri 06:55:36 PM 25.9572 -79.8792 299° West 274 315 5,900 -50 Descending Miami Center
Fri 06:56:36 PM 25.9869 -79.9539 294° West 274 315 5,900  Level Miami Center
Fri 06:57:36 PM 26.0314 -80.0244 305° West 274 315 5,900  Level Miami Center
Fri 06:58:36 PM 26.0739 -80.0950 304° West 274 315 5,900 -333 Level Miami Center
Fri 06:59:42 PM 26.1158 -80.1725 301° West 260 299 5,200 -425 Descending Miami Center
Fri 07:00:43 PM 26.1269 -80.2422 280° West 215 247 5,000 -98 Descending Miami Center
Fri 07:01:44 PM 26.1294 -80.3094 272° West 216 249 5,000 -49 Level Miami Center
Fri 07:02:45 PM 26.1194 -80.3739 260° West 217 250 4,900 -541 Descending Miami Center
Fri 07:03:46 PM 26.0761 -80.3611 165° South 193 222 3,900 -1,230 Descending Miami Center
Fri 07:04:47 PM 26.0772 -80.3056 89° East 171 197 2,400 -1,180 Descending Miami Center
Fri 07:05:48 PM 26.0744 -80.2522 93° East 167 192 1,500 -787 Descending Miami Center
Fri 07:06:49 PM 26.0753 -80.2106 89° East 120 138 800 -689 Descending Miami Center
Fri 07:08:00 PM 26.0667 -80.1500 77° East  Level FlightAware Approximate
Fri 07:15:00 PM 26.0726 -80.1527 77° East  Level Estimated
Fri 07:16:00 PM 26.0667 -80.1500 77° East  Level FlightAware Approximate

Login

Don't have an account? Register now (free) for customized features, flight alerts, and more!